DW4839 Weather Reports


time (UTC)temp
F
wind
direction
speed
knots
gust
knots
rain 1hr
in
rain 24hr
in
rain mn
in
humidity
%
barometer
mb
20260905163102 57 344 2.6 5.2 0.00 0.35 0.00 83 1017.5
20260905161606 57 32 1.7 6.1 0.00 0.35 0.00 84 1017.6
20260905160058 55 31 0.9 3.5 0.00 0.35 0.00 87 1017.7
20260905154602 55 105 1.7 4.3 0.00 0.36 0.00 85 1017.6
20260905153100 55 96 1.7 5.2 0.00 0.36 0.00 86 1017.6
20260905151602 54 96 1.7 3.5 0.00 0.36 0.00 86 1017.7
20260905150059 54 5 0.0 1.7 0.00 0.36 0.00 87 1017.8
20260905144602 53 5 0.0 1.7 0.00 0.36 0.00 88 1017.6
20260905143105 52 0 0.0 1.7 0.00 0.36 0.00 91 1017.5
20260905141603 52 5 0.9 1.7 0.00 0.36 0.00 91 1017.4
20260905140106 51 29 0.9 1.7 0.00 0.36 0.00 90 1017.5
20260905134615 51 0 0.0 1.7 0.00 0.36 0.00 90 1017.4
20260905133102 51 0 0.0 1.7 0.00 0.36 0.00 90 1017.3
20260905131603 52 216 0.9 4.3 0.00 0.36 0.00 88 1017.3
20260905130110 53 157 0.9 1.7 0.00 0.36 0.00 87 1017.1
20260905124604 53 148 0.9 2.6 0.00 0.36 0.00 87 1016.9
20260905123108 53 171 0.9 2.6 0.00 0.36 0.00 87 1017.0
20260905121603 53 177 0.9 2.6 0.00 0.36 0.00 88 1017.0
20260905120104 53 0 0.0 0.9 0.00 0.36 0.00 87 1017.0
20260905114611 53 0 0.0 1.7 0.00 0.39 0.00 87 1016.9
20260905113100 53 0 0.0 1.7 0.00 0.39 0.00 85 1017.0
20260905111615 53 0 0.0 0.0 0.00 0.39 0.00 86 1016.8
20260905110108 53 0 0.0 0.0 0.00 0.39 0.00 86 1016.9
20260905104607 53 0 0.0 1.7 0.00 0.40 0.00 87 1016.8
20260905103101 53 232 0.0 1.7 0.00 0.40 0.00 89 1017.0
20260905101601 52 180 0.9 3.5 0.00 0.40 0.00 89 1017.0
20260905100107 53 183 1.7 2.6 0.00 0.40 0.00 89 1017.1
20260905094612 53 190 0.0 1.7 0.00 0.40 0.00 89 1017.0
20260905093102 53 308 0.9 1.7 0.00 0.40 0.00 88 1016.9
20260905091609 53 178 0.9 2.6 0.00 0.40 0.00 88 1016.7
20260905084609 54 196 1.7 1.7 0.00 0.40 0.00 88 1016.8
20260905083101 53 172 0.9 1.7 0.00 0.40 0.00 88 1016.6
20260905081616 54 137 0.0 1.7 0.00 0.40 0.00 89 1016.6
20260905074603 54 83 0.9 1.7 0.00 0.40 0.00 89 1016.6
20260905073130 54 170 0.0 1.7 0.00 0.40 0.00 90 1016.6
20260905071601 54 189 0.9 1.7 0.00 0.40 0.00 91 1016.5
20260905070055 54 217 0.0 1.7 0.00 0.40 0.00 90 1016.4
20260905064603 54 182 0.9 1.7 0.00 0.40 0.40 90 1016.3
20260905063114 54 217 0.0 1.7 0.00 0.40 0.40 90 1016.3
20260905061614 53 217 0.0 1.7 0.00 0.40 0.40 90 1016.1
20260905060053 54 227 0.0 2.6 0.00 0.40 0.40 88 1016.0
20260905054603 54 239 0.0 0.9 0.00 0.40 0.40 87 1016.1
20260905053059 54 239 0.0 0.9 0.00 0.40 0.40 88 1016.0
20260905051556 54 238 0.9 2.6 0.00 0.40 0.40 87 1016.1
20260905044604 54 173 0.0 0.9 0.00 0.40 0.40 87 1015.9
20260905043119 54 0 0.0 1.7 0.00 0.40 0.40 87 1015.9
20260905041604 54 0 0.0 1.7 0.00 0.40 0.40 87 1015.8
20260905040122 54 124 0.0 1.7 0.00 0.40 0.40 87 1015.9
20260905034600 54 142 0.0 1.7 0.00 0.40 0.40 87 1015.5
20260905033110 54 103 0.0 2.6 0.00 0.40 0.40 87 1015.4
20260905031613 54 0 0.0 1.7 0.00 0.40 0.40 88 1015.5
20260905030106 54 80 0.9 2.6 0.00 0.40 0.40 87 1015.4
20260905024602 54 145 0.0 1.7 0.00 0.40 0.40 89 1015.4
20260905023105 54 0 0.0 1.7 0.00 0.40 0.40 87 1015.4
20260905021603 55 0 0.0 2.6 0.00 0.40 0.40 87 1015.2
20260905020110 55 187 1.7 3.5 0.00 0.40 0.40 89 1015.0
20260905014604 56 143 0.9 2.6 0.00 0.40 0.40 89 1014.9
20260905013103 56 175 0.9 1.7 0.00 0.40 0.40 89 1014.9
20260905011606 56 141 0.0 1.7 0.00 0.40 0.40 89 1014.7
20260905010108 56 162 0.9 2.6 0.00 0.40 0.40 89 1014.7
20260905004613 56 174 0.0 5.2 0.00 0.40 0.40 90 1014.5
20260905003100 56 185 1.7 4.3 0.00 0.40 0.40 88 1014.5
20260905001558 58 211 1.7 3.5 0.00 0.40 0.40 85 1014.4
20260904234601 57 90 1.7 4.3 0.00 0.44 0.40 88 1014.5
20260904233106 57 165 0.9 5.2 0.00 0.44 0.40 87 1014.4
20260904231600 57 153 1.7 5.2 0.00 0.44 0.40 86 1014.2
20260904230112 55 153 0.9 4.3 0.01 0.44 0.40 86 1014.3
20260904224601 54 136 0.9 2.6 0.02 0.46 0.40 89 1014.2
20260904223106 54 172 0.9 1.7 0.11 0.46 0.40 86 1014.5
20260904221605 53 228 1.7 2.6 0.34 0.46 0.40 88 1014.4
20260904220116 53 237 0.9 1.7 0.34 0.45 0.39 86 1014.3
20260904214600 52 0 0.0 3.5 0.33 0.44 0.38 88 1014.0
20260904213106 55 206 4.3 19.1 0.24 0.35 0.29 87 1014.1
20260904211613 60 221 4.3 9.6 0.01 0.12 0.06 74 1013.8
20260904210104 62 0 0.0 2.6 0.00 0.11 0.05 70 1013.5
20260904204605 62 15 0.9 4.3 0.00 0.11 0.05 73 1013.4
20260904203104 61 5 0.9 1.7 0.00 0.11 0.05 72 1013.4
20260904201559 61 298 0.9 3.5 0.00 0.11 0.05 66 1013.3
20260904194603 62 329 0.0 2.6 0.00 0.11 0.05 73 1013.4
20260904193110 60 0 0.9 4.3 0.00 0.11 0.05 71 1013.5
20260904191602 60 82 0.0 4.3 0.00 0.11 0.05 73 1013.6
20260904190059 60 350 1.7 7.8 0.00 0.11 0.05 74 1013.6
20260904184604 60 13 2.6 5.2 0.00 0.13 0.05 75 1013.6
20260904183120 60 328 1.7 2.6 0.00 0.13 0.05 76 1013.4
20260904181603 59 22 1.7 4.3 0.00 0.13 0.05 79 1013.3
20260904180123 59 46 0.0 2.6 0.00 0.13 0.05 80 1013.3
20260904174609 60 9 1.7 7.8 0.00 0.13 0.05 78 1013.2
20260904173059 60 30 2.6 4.3 0.00 0.13 0.05 80 1013.1
20260904171604 59 35 1.7 4.3 0.00 0.13 0.05 80 1013.1
20260904170058 58 28 1.7 2.6 0.00 0.13 0.05 80 1013.0
20260904164607 56 115 0.9 2.6 0.00 0.13 0.05 83 1013.0